User: anonymous   Login
Location: Al Mulaqqa?ah
(24.1833°N, 32.8833°E)
Time: 18:23:04
(UTC+00:00)
Language:

SEDSat Delta rocket - Orbit

View from above orbital plane
View from above orbital plane
View from above satellite
View from above satellite

Ground track
Ground track

The orbit data is extracted from the following two-line orbital elements,

1 25510U 98061C   21333.89640387  .00000543  00000-0  84977-4 0  9995
2 25510  31.4317 167.0145 0326279 112.0013  18.8231 14.37679655212051
Epoch (UTC): 29 November 2021 21:30:49
Eccentricity: 0.0326279
inclination: 31.4317°
perigee height: 533 km
apogee height: 999 km
right ascension of ascending node: 167.0145°
argument of perigee: 112.0013°
revolutions per day: 14.37679655
mean anomaly at epoch: 18.8231°
orbit number at epoch: 21205

The dashed part of the orbit path shows where the satellite is in the earth's shadow,  

DLR